TimePDT,TemperatureF,Dew PointF,Humidity,Sea Level PressureIn,VisibilityMPH,Wind Direction,Wind SpeedMPH,Gust SpeedMPH,PrecipitationIn,Events,Conditions,WindDirDegrees,DateUTC
12:54 AM,59.0,55.0,87,30.03,10.0,Calm,Calm,-,N/A,,Clear,0,2012-10-04 07:54:00
1:54 AM,60.1,55.0,83,30.04,10.0,Calm,Calm,-,N/A,,Scattered Clouds,0,2012-10-04 08:54:00
2:01 AM,60.8,55.4,82,30.01,10.0,Calm,Calm,-,N/A,,Mostly Cloudy,0,2012-10-04 09:01:00
2:42 AM,60.8,55.4,82,30.01,10.0,North,3.5,-,N/A,,Scattered Clouds,10,2012-10-04 09:42:00
2:54 AM,60.1,55.0,83,30.04,10.0,Calm,Calm,-,N/A,,Clear,0,2012-10-04 09:54:00
3:44 AM,59.0,55.4,88,30.01,8.0,North,5.8,-,N/A,,Mostly Cloudy,10,2012-10-04 10:44:00
3:54 AM,59.0,55.0,87,30.04,8.0,NNE,4.6,-,N/A,,Mostly Cloudy,20,2012-10-04 10:54:00
4:54 AM,59.0,55.0,87,30.04,8.0,East,3.5,-,N/A,,Overcast,90,2012-10-04 11:54:00
5:24 AM,60.8,55.4,82,30.03,9.0,Calm,Calm,-,N/A,,Overcast,0,2012-10-04 12:24:00
5:54 AM,61.0,55.0,81,30.06,10.0,West,6.9,-,N/A,,Overcast,280,2012-10-04 12:54:00
6:54 AM,61.0,55.0,81,30.08,10.0,West,4.6,-,N/A,,Overcast,280,2012-10-04 13:54:00
7:54 AM,62.1,55.0,78,30.09,10.0,West,3.5,-,N/A,,Overcast,280,2012-10-04 14:54:00
8:54 AM,62.1,55.0,78,30.12,10.0,Calm,Calm,-,N/A,,Overcast,0,2012-10-04 15:54:00
9:54 AM,63.0,55.0,75,30.14,9.0,Variable,3.5,-,N/A,,Overcast,0,2012-10-04 16:54:00
10:54 AM,66.0,54.0,65,30.15,10.0,Variable,5.8,-,N/A,,Scattered Clouds,0,2012-10-04 17:54:00
11:54 AM,68.0,55.0,63,30.15,10.0,WNW,9.2,-,N/A,,Scattered Clouds,290,2012-10-04 18:54:00
12:54 PM,68.0,54.0,61,30.14,10.0,West,6.9,-,N/A,,Clear,280,2012-10-04 19:54:00
1:54 PM,71.1,54.0,55,30.12,10.0,West,9.2,-,N/A,,Clear,280,2012-10-04 20:54:00
2:54 PM,71.1,54.0,55,30.12,10.0,WNW,15.0,-,N/A,,Clear,300,2012-10-04 21:54:00
3:54 PM,68.0,55.0,63,30.12,10.0,NW,12.7,-,N/A,,Clear,310,2012-10-04 22:54:00
4:54 PM,66.0,54.0,65,30.12,10.0,WNW,18.4,-,N/A,,Clear,300,2012-10-04 23:54:00
5:54 PM,63.0,53.1,70,30.13,10.0,WNW,15.0,-,N/A,,Clear,300,2012-10-05 00:54:00
6:54 PM,61.0,53.1,75,30.14,10.0,NW,8.1,-,N/A,,Clear,310,2012-10-05 01:54:00
7:54 PM,60.1,53.1,78,30.14,10.0,WNW,6.9,-,N/A,,Scattered Clouds,300,2012-10-05 02:54:00
8:54 PM,59.0,53.1,81,30.15,10.0,NW,4.6,-,N/A,,Partly Cloudy,310,2012-10-05 03:54:00
9:54 PM,59.0,53.1,81,30.17,10.0,WNW,9.2,-,N/A,,Clear,290,2012-10-05 04:54:00
10:30 PM,60.8,53.6,77,30.14,10.0,WNW,6.9,-,N/A,,Mostly Cloudy,290,2012-10-05 05:30:00
10:54 PM,60.1,54.0,80,30.17,10.0,WNW,6.9,-,N/A,,Overcast,290,2012-10-05 05:54:00
11:46 PM,60.8,53.6,77,30.15,10.0,West,6.9,-,N/A,,Overcast,280,2012-10-05 06:46:00
11:54 PM,60.1,54.0,80,30.17,10.0,WNW,6.9,-,N/A,,Overcast,290,2012-10-05 06:54:00